Location: Builderbug Observatory
(40.4552°N, 111.7868°W)
Time: 14:46:46
(UTC-06:00)

Tiangong 2 - Visible Passes

Search period start: 24 June 2018 00:00
Search period end: 04 July 2018 00:00
Orbit: 385 x 396 km, 42.8° (Epoch: 24 June)

Date Brightness Start Highest point End Pass type
(mag) Time Alt. Az. Time Alt. Az. Time Alt. Az.
24 Jun 3.6 05:20:30 10° S 05:22:01 13° SE 05:23:32 10° ESE visible
26 Jun 2.8 05:01:14 12° SSW 05:03:35 23° SSE 05:06:13 10° E visible
27 Jun 3.4 04:06:15 14° SE 04:06:15 14° SE 04:08:01 10° ESE visible
28 Jun 1.7 04:43:32 21° SW 04:45:15 42° SSE 04:48:18 10° E visible
29 Jun 2.7 03:48:28 24° SE 03:48:28 24° SE 03:50:34 10° E visible
29 Jun 1.2 05:21:20 10° WSW 05:24:31 79° NNW 05:27:45 10° ENE visible
30 Jun 1.0 04:25:42 32° WSW 04:27:00 73° SSE 04:30:12 10° ENE visible
01 Jul 2.4 03:30:35 32° ESE 03:30:35 32° ESE 03:32:37 10° E visible
01 Jul 1.6 05:03:14 10° W 05:06:24 60° N 05:09:35 10° ENE visible
02 Jul 1.2 04:07:48 39° W 04:08:51 75° NNW 04:12:03 10° ENE visible
03 Jul 2.7 03:12:42 31° E 03:12:42 31° E 03:14:31 10° ENE visible
03 Jul 1.8 04:45:11 10° W 04:48:19 53° N 04:51:28 10° ENE visible
